This is the latest recevied weather packets stored in our database for station/object K8RRT. If no packets are shown the sender has not sent any weather packets the latest 10 day(s).
| Time | Temp. | Humidity | Pressure | Rain* | Wind** | Luminosity | Snow |
|---|---|---|---|---|---|---|---|
| 1787792811 | 22.22° C | 98% | 1011.2 hPa | 0 mm | - | 0 W/m² | - |
| 1787792511 | 22.22° C | 97% | 1011 hPa | 0 mm | - | 0 W/m² | - |
| 1787792208 | 22.78° C | 97% | 1011.4 hPa | 0 mm | - | 0 W/m² | - |
| 1787791906 | 22.78° C | 97% | 1011.2 hPa | 0 mm | - | 0 W/m² | - |
| 1787791601 | 22.78° C | 96% | 1011.2 hPa | 0 mm | - | 0 W/m² | - |
| 1787791297 | 22.78° C | 96% | 1011 hPa | 0 mm | - | 0 W/m² | - |
| 1787790992 | 23.33° C | 96% | 1011.1 hPa | 0 mm | - | 0 W/m² | - |
| 1787790687 | 23.33° C | 95% | 1011.1 hPa | 0 mm | - | 0 W/m² | - |
| 1787790382 | 23.89° C | 95% | 1011.2 hPa | 0 mm | - | 0 W/m² | - |
| 1787790078 | 23.89° C | 94% | 1010.7 hPa | 0 mm | - | 0 W/m² | - |
| 1787789774 | 23.89° C | 94% | 1010.9 hPa | 0 mm | - | 0 W/m² | - |
| 1787789468 | 24.44° C | 92% | 1011 hPa | 0 mm | - | 0 W/m² | - |
| 1787789167 | 24.44° C | 91% | 1010.7 hPa | 0 mm | - | 4 W/m² | - |
| 1787788861 | 25° C | 90% | 1010.9 hPa | 0 mm | - | 7 W/m² | - |
| 1787788559 | 25.56° C | 89% | 1010.7 hPa | 0 mm | - | 16 W/m² | - |
| 1787788255 | 25.56° C | 88% | 1010.7 hPa | 0 mm | - | 21 W/m² | - |
| 1787787950 | 25.56° C | 87% | 1010.9 hPa | 0 mm | - | 28 W/m² | - |
| 1787787644 | 25.56° C | 87% | 1010.8 hPa | 0 mm | - | 34 W/m² | - |
| 1787787343 | 25.56° C | 85% | 1010.7 hPa | 0 mm | - | 42 W/m² | - |
| 1787787038 | 26.11° C | 84% | 1010.9 hPa | 0 mm | - | 49 W/m² | - |
| 1787786738 | 26.11° C | 82% | 1010.8 hPa | 0 mm | - | 52 W/m² | - |
| 1787786432 | 26.67° C | 82% | 1010.9 hPa | 0 mm | - | 53 W/m² | - |
| 1787786128 | 26.67° C | 80% | 1011 hPa | 0 mm | - | 63 W/m² | - |
| 1787785824 | 27.22° C | 78% | 1011 hPa | 0 mm | - | 67 W/m² | - |
| 1787785519 | 27.22° C | 77% | 1010.9 hPa | 0 mm | - | 79 W/m² | - |
* Rain latest hour (hover to see other rain measurements)
** Current wind speed in m/s (hover to see current wind gust speed)